Location: Passau
(48.5830°N, 13.4830°E)
Time: 16:16:34
(UTC+02:00)

Vanguard 3 - All Passes

Search period start: 18 May 2024 00:00
Search period end: 28 May 2024 00:00
Orbit: 509 x 3234 km, 33.3° (Epoch: 18 May)

Date Brightness Start Highest point End Pass type
(mag) Time Alt. Az. Time Alt. Az. Time Alt. Az.
18 May - 01:37:50 10° W 01:53:12 38° SSW 02:09:52 10° SE visible
18 May - 03:54:27 10° W 04:06:08 20° SW 04:17:24 10° S visible
18 May - 19:58:50 10° SSW 20:07:29 28° SE 20:19:55 10° E daylight
18 May - 22:07:36 10° SW 22:19:33 44° S 22:36:42 10° ESE visible
19 May - 00:18:58 10° WSW 00:33:25 44° SSW 00:51:10 10° SE visible
19 May - 02:32:59 10° W 02:47:09 29° SSW 03:01:50 10° SSE visible
19 May - 18:44:30 10° SSE 18:50:02 16° SE 18:57:08 10° ESE daylight
19 May - 20:50:48 10° SW 21:00:43 37° SSE 21:15:38 10° E daylight
19 May - 23:00:54 10° WSW 23:13:43 46° S 23:31:23 10° ESE visible
20 May - 01:13:17 10° W 01:27:40 37° SSW 01:44:18 10° SE visible
20 May - 03:29:48 10° WSW 03:40:39 18° SW 03:51:34 10° S visible
20 May - 19:34:55 10° SSW 19:42:40 26° SE 19:54:01 10° E daylight
20 May - 21:43:32 10° SW 21:54:26 43° S 22:10:47 10° ESE visible
20 May - 23:54:38 10° WSW 00:07:59 42° SSW 00:25:23 10° SE visible
21 May - 02:08:23 10° W 02:21:36 27° SSW 02:36:04 10° SSE visible
21 May - 18:20:40 10° SSE 18:25:23 15° SE 18:31:21 10° ESE daylight
21 May - 20:26:52 10° SW 20:35:49 36° SSE 20:49:39 10° ESE daylight
21 May - 22:36:46 10° WSW 22:48:28 44° S 23:05:25 10° ESE visible
22 May - 00:48:51 10° W 01:02:09 34° SSW 01:18:26 10° SSE visible
22 May - 03:05:26 10° WSW 03:15:08 17° SW 03:25:18 10° S visible
22 May - 19:11:03 10° SSW 19:17:57 25° SSE 19:28:07 10° E daylight
22 May - 21:19:33 10° SW 21:29:25 41° S 21:44:44 10° ESE visible
22 May - 23:30:24 10° WSW 23:42:37 40° SSW 23:59:22 10° SE visible
23 May - 01:43:57 10° W 01:56:04 25° SSW 02:09:58 10° SSE visible
23 May - 17:56:56 10° SSE 18:00:47 14° SE 18:05:33 10° ESE daylight
23 May - 20:02:59 10° SW 20:11:01 34° SSE 20:23:37 10° ESE daylight
23 May - 22:12:43 10° WSW 22:23:19 41° S 22:39:18 10° ESE visible
24 May - 00:24:34 10° WSW 00:36:43 32° SSW 00:52:17 10° SSE visible
24 May - 02:41:25 10° WSW 02:49:39 15° SW 02:58:29 10° SSW visible
24 May - 18:47:14 10° SSW 18:53:19 24° SSE 19:02:14 10° ESE daylight
24 May - 20:55:38 10° SW 21:04:30 39° S 21:18:35 10° ESE daylight
24 May - 23:06:16 10° WSW 23:17:22 37° SSW 23:33:09 10° SE visible
25 May - 01:19:43 10° WSW 01:30:36 23° SSW 01:43:31 10° S visible
25 May - 17:33:20 10° SSE 17:36:16 13° SE 17:39:45 10° ESE daylight
25 May - 19:39:09 10° SW 19:46:19 32° SSE 19:57:35 10° ESE daylight
25 May - 21:48:44 10° WSW 21:58:17 39° S 22:13:03 10° SE visible
26 May - 00:00:25 10° WSW 00:11:22 29° SSW 00:25:52 10° SSE visible
26 May - 02:17:58 10° WSW 02:24:13 13° SW 02:30:56 10° SSW visible
26 May - 18:23:28 10° SSW 18:28:45 22° SSE 18:36:24 10° ESE daylight
26 May - 20:31:46 10° SW 20:39:42 36° S 20:52:25 10° ESE daylight
26 May - 22:42:15 10° WSW 22:52:12 34° SSW 23:06:44 10° SE visible
27 May - 00:55:43 10° WSW 01:05:13 20° SSW 01:16:42 10° S visible
27 May - 17:09:57 10° SSE 17:11:47 11° SE 17:13:50 10° SE daylight
27 May - 19:15:22 10° SW 19:21:41 29° SSE 19:31:35 10° ESE daylight
27 May - 21:24:49 10° WSW 21:33:21 35° S 21:46:43 10° SE visible
